15min,AgWx,beryljct,423,27NOV2019:00:00:00,32.1,12.87,31.6,31.4,31.5,31.8,31.4,46,47,45,0.279,13.3,13.8,12.7,13.85,17.3,185,7.3,23.1,0.00030,0.00034,35.4,38.4,19,0,.,.,7.46,0.00,0.00
15min,AgWx,beryljct,423,27NOV2019:00:15:00,32.2,12.86,31.7,31.4,31.5,31.8,31.4,46,47,44,0.275,13.2,13.5,12.5,14.93,15.8,190,6.6,20.1,0.00029,0.00033,35.4,38.4,19,0,.,.,7.46,0.00,0.00
15min,AgWx,beryljct,423,27NOV2019:00:30:00,32.2,12.86,31.6,31.6,31.5,31.9,31.2,46,48,44,0.271,12.9,13.7,12.2,13.7,17.1,188,7.6,23.0,0.00030,0.00034,35.3,38.4,18,0,.,.,7.46,0.00,0.00
15min,AgWx,beryljct,423,27NOV2019:00:45:00,32.3,12.85,31.9,31.8,31.6,31.9,31.3,44,47,43,0.261,12.4,13.4,11.7,14.6,17.1,188,6.7,21.5,0.00031,0.00035,35.3,38.3,19,0,.,.,7.46,0.00,0.00
15min,AgWx,beryljct,423,27NOV2019:01:00:00,32.3,12.84,32.1,31.5,31.7,32.0,31.3,43,46,42,0.265,11.9,12.8,11.5,15.94,16.0,187,9.3,22.5,0.00031,0.00035,35.3,38.3,19,0,.,.,7.46,0.00,0.00
15min,AgWx,beryljct,423,27NOV2019:01:15:00,32.3,12.84,31.2,31.4,31.5,31.6,31.3,44,45,43,0.260,11.9,12.5,11.5,11.88,14.8,184,7.5,19.3,0.00030,0.00034,35.2,38.3,19,0,.,.,7.46,0.00,0.00
15min,AgWx,beryljct,423,27NOV2019:01:30:00,31.9,12.83,31.2,31.3,31.2,31.5,30.8,43,46,41,0.251,11.5,12.4,10.6,13.59,15.6,181,7.7,23.3,0.00030,0.00034,35.2,38.3,19,0,.,.,7.46,0.00,0.00
15min,AgWx,beryljct,423,27NOV2019:01:45:00,31.7,12.83,31.8,31.3,31.3,31.4,31.0,42,43,42,0.248,11.1,11.4,10.8,16.44,15.8,181,7.8,21.8,0.00031,0.00035,35.2,38.3,18,0,.,.,7.46,0.00,0.00
15min,AgWx,beryljct,423,27NOV2019:02:00:00,31.5,12.83,30.7,30.7,31.0,31.4,30.6,43,45,42,0.259,11.3,11.7,10.7,10.08,12.6,179,8.2,17.8,0.00027,0.00032,35.2,38.3,20,0,.,.,7.46,0.00,0.00
15min,AgWx,beryljct,423,27NOV2019:02:15:00,31.1,12.82,30.8,31.0,30.5,31.0,30.1,45,47,44,0.258,11.8,12.2,11.5,10.81,12.3,179,7.9,17.5,0.00025,0.00029,35.1,38.3,19,0,.,.,7.46,0.00,0.00
15min,AgWx,beryljct,423,27NOV2019:02:30:00,31.1,12.81,31.6,31.2,30.9,31.2,30.6,46,47,44,0.269,12.6,13.1,11.7,14.49,13.5,188,6.0,20.1,0.00026,0.00030,35.1,38.3,18,0,.,.,7.46,0.00,0.00
15min,AgWx,beryljct,423,27NOV2019:02:45:00,31.2,12.81,31.1,30.9,31.1,31.4,30.6,45,46,43,0.262,12.1,12.6,11.5,12.85,13.7,186,7.3,18.4,0.00028,0.00032,35.1,38.3,19,0,.,.,7.46,0.00,0.00
15min,AgWx,beryljct,423,27NOV2019:03:00:00,31.0,12.8,31.0,30.7,30.8,30.9,30.6,46,46,45,0.269,12.2,12.6,12.0,11.22,13.3,185,7.3,18.1,0.00026,0.00031,35.1,38.2,19,0,.,.,7.45,0.00,0.00
15min,AgWx,beryljct,423,27NOV2019:03:15:00,30.8,12.79,31.1,30.7,30.7,30.8,30.5,46,47,45,0.261,12.2,12.7,11.8,15.15,12.3,179,8.3,15.7,0.00025,0.00029,35.0,38.2,19,0,.,.,7.46,0.00,0.00
15min,AgWx,beryljct,423,27NOV2019:03:30:00,30.6,12.77,31.8,31.3,30.9,31.3,30.5,45,46,43,0.256,11.9,12.1,11.5,12.28,13.1,183,11,18.6,0.00027,0.00031,35.0,38.2,19,0,.,.,7.45,0.00,0.00
15min,AgWx,beryljct,423,27NOV2019:03:45:00,30.5,12.77,31.2,30.5,30.7,31.5,29.8,45,48,42,0.261,11.8,12.3,11.1,12.21,8.8,192,9.3,16.2,0.00021,0.00025,35.0,38.2,20,0,.,.,7.46,0.00,0.00
15min,AgWx,beryljct,423,27NOV2019:04:00:00,30.3,12.75,30.8,30.9,30.9,31.3,30.4,45,46,44,0.263,12.0,12.4,11.7,6.423,10.5,190,11,16.7,0.00024,0.00028,35.0,38.2,19,0,.,.,7.45,0.00,0.00
15min,AgWx,beryljct,423,27NOV2019:04:15:00,30.3,12.75,30.6,30.8,30.8,31.1,30.3,45,46,44,0.263,12.1,12.3,11.9,11.84,9.8,185,11,15.5,0.00022,0.00027,35.0,38.1,18,0,.,.,7.46,0.00,0.00
15min,AgWx,beryljct,423,27NOV2019:04:30:00,30.2,12.75,30.7,30.8,30.7,31.0,30.5,46,46,45,0.264,12.3,12.5,12.0,6.314,11.7,173,8.7,16.5,0.00025,0.00029,34.9,38.1,19,0,.,.,7.45,0.00,0.00
15min,AgWx,beryljct,423,27NOV2019:04:45:00,30.1,12.75,31.0,30.4,30.5,30.7,30.2,46,47,45,0.264,12.1,12.3,12.0,9.84,8.3,174,10,12.2,0.00019,0.00024,34.9,38.1,18,0,.,.,7.45,0.00,0.00
15min,AgWx,beryljct,423,27NOV2019:05:00:00,30.1,12.74,31.8,31.0,30.7,31.1,30.4,46,47,45,0.263,12.3,12.6,12.0,5.305,5.9,182,13,10.4,0.00014,0.00018,34.9,38.1,18,0,.,.,7.45,0.00,0.00
15min,AgWx,beryljct,423,27NOV2019:05:15:00,30.3,12.73,31.6,31.0,31.1,31.2,30.9,45,46,44,0.267,12.4,12.6,12.0,12.23,7.5,182,16,14.7,0.00018,0.00023,34.8,38.1,19,0,.,.,7.46,0.00,0.00
15min,AgWx,beryljct,423,27NOV2019:05:30:00,30.6,12.72,31.8,31.3,31.3,31.5,31.1,44,45,44,0.263,12.0,12.4,11.8,9.38,10.5,170,13,15.4,0.00024,0.00029,34.8,38.1,18,0,.,.,7.46,0.00,0.00
15min,AgWx,beryljct,423,27NOV2019:05:45:00,30.6,12.72,31.3,30.9,31.0,31.4,30.7,45,46,44,0.263,12.0,12.2,11.7,9.91,8.8,171,10,14.9,0.00021,0.00026,34.8,38.1,19,0,.,.,7.46,0.00,0.00
15min,AgWx,beryljct,423,27NOV2019:06:00:00,31.0,12.72,32.4,31.8,31.3,31.8,30.8,45,46,44,0.266,12.3,12.5,12.1,23.85,13.1,168,9.8,23.9,0.00027,0.00031,34.8,38.1,19,0,.,.,7.46,0.00,0.00
15min,AgWx,beryljct,423,27NOV2019:06:15:00,31.4,12.71,31.9,31.4,31.6,31.9,31.4,44,45,43,0.267,12.4,12.6,12.1,17.25,13.3,174,12,18.6,0.00028,0.00032,34.7,38.0,19,0,.,.,7.45,0.00,0.00
15min,AgWx,beryljct,423,27NOV2019:06:30:00,31.6,12.7,32.4,32.1,31.8,32.2,31.4,43,45,42,0.257,11.9,12.5,11.4,15.67,16.2,176,9.5,22.7,0.00031,0.00036,34.7,38.0,18,0,.,.,7.46,0.00,0.00
15min,AgWx,beryljct,423,27NOV2019:06:45:00,31.9,12.7,32.7,32.2,32.1,32.3,31.9,42,43,42,0.259,11.7,12.1,11.5,17.45,14.5,176,9.0,21.2,0.00087,0.00152,34.7,38.0,18,0,.,.,7.46,0.00,0.00
15min,AgWx,beryljct,423,27NOV2019:07:00:00,32.3,12.7,32.9,32.4,32.4,32.6,32.2,41,42,41,0.257,11.5,11.8,11.2,17.49,15.2,176,9.0,19.7,0.00092,0.00160,34.7,38.0,19,0,.,.,7.46,0.00,0.00
15min,AgWx,beryljct,423,27NOV2019:07:15:00,32.6,12.69,33.5,33.1,32.8,33.2,32.4,41,42,39,0.257,11.6,11.9,10.9,19.55,16.1,179,9.5,24.3,0.00097,0.00168,34.7,38.0,19,0,.,.,7.46,0.00,0.00
15min,AgWx,beryljct,423,27NOV2019:07:30:00,33.1,12.67,33.2,33.0,33.1,33.4,32.9,40,41,39,0.260,11.6,11.9,11.1,14.45,16.1,178,8.1,21.6,0.00099,0.00172,34.6,37.9,18,1,.,.,7.45,0.00,0.00
15min,AgWx,beryljct,423,27NOV2019:07:45:00,33.3,12.67,33.4,33.2,33.0,33.2,32.9,41,41,40,0.260,11.6,12.0,11.3,17.87,15.5,175,9.7,23.7,0.00097,0.00168,34.6,37.9,18,5,.,.,7.46,0.00,0.00
15min,AgWx,beryljct,423,27NOV2019:08:00:00,33.4,12.7,33.5,33.2,33.2,33.4,33.0,41,41,39,0.260,11.8,12.1,11.3,15.37,15.7,180,8.0,22.1,0.00101,0.00173,34.6,37.9,18,15,.,.,7.46,0.00,0.00
15min,AgWx,beryljct,423,27NOV2019:08:15:00,33.6,12.78,33.7,33.4,33.4,33.6,33.2,40,41,39,0.260,11.7,12.1,11.5,12.65,14.8,180,8.6,21.2,0.00104,0.00176,34.5,37.9,19,34,.,.,7.46,0.00,0.00
15min,AgWx,beryljct,423,27NOV2019:08:30:00,33.8,13.04,34.5,34.1,33.7,34.2,33.4,39,40,38,0.261,11.6,11.9,11.3,15.74,14.6,179,8.7,20.5,0.00116,0.00189,34.5,37.9,19,87,.,.,7.46,0.00,0.00
15min,AgWx,beryljct,423,27NOV2019:08:45:00,34.2,13.1,34.7,34.4,34.3,34.5,34.1,38,39,37,0.257,11.5,11.9,11.0,13.81,15.4,178,7.5,20.0,0.00124,0.00201,34.5,37.9,19,83,.,.,7.45,0.00,0.00
15min,AgWx,beryljct,423,27NOV2019:09:00:00,34.4,14.7,35.1,34.5,34.3,34.6,34.1,39,40,38,0.263,11.8,12.1,11.5,15.41,14.5,174,8.8,20.5,0.00121,0.00196,34.5,37.9,19,86,.,.,7.45,0.00,0.00
15min,AgWx,beryljct,423,27NOV2019:09:15:00,35.4,14.73,37.1,36.7,35.8,36.7,34.5,37,39,36,0.268,12.1,12.7,11.8,16.68,16.6,175,9.3,23.0,0.00165,0.00252,34.5,37.9,20,265,.,.,7.45,0.00,0.00
15min,AgWx,beryljct,423,27NOV2019:09:30:00,37.0,14.69,37.8,37.2,37.0,37.2,36.7,35,37,35,0.267,12.1,12.6,11.7,15.17,19.4,180,9.2,27.4,0.00188,0.00287,34.5,37.8,19,299,.,.,7.45,0.00,0.00
15min,AgWx,beryljct,423,27NOV2019:09:45:00,38.3,14.62,38.1,37.9,37.5,37.9,37.3,35,36,34,0.273,12.4,13.0,11.8,16.29,17.7,178,11,25.1,0.00195,0.00293,34.5,37.8,19,338,.,.,7.45,0.00,0.00
15min,AgWx,beryljct,423,27NOV2019:10:00:00,39.2,14.59,38.2,37.9,37.8,38.0,37.6,34,35,33,0.260,12.0,12.8,11.5,24.2,23.9,172,9.7,30.5,0.00216,0.00331,34.4,37.8,19,368,.,.,7.46,0.00,0.00
15min,AgWx,beryljct,423,27NOV2019:10:15:00,39.9,14.62,39.2,38.8,38.4,38.8,37.8,35,35,34,0.279,12.8,13.6,11.9,17.21,19.6,172,8.9,30.5,0.00219,0.00326,34.4,37.8,19,399,.,.,7.45,0.00,0.00
15min,AgWx,beryljct,423,27NOV2019:10:30:00,40.6,14.59,39.5,39.3,38.8,39.4,38.6,34,35,34,0.288,13.1,14.3,12.6,24.95,22.2,180,9.3,28.8,0.00232,0.00347,34.4,37.8,19,431,.,.,7.45,0.00,0.00
15min,AgWx,beryljct,423,27NOV2019:10:45:00,41.2,14.56,39.5,39.4,39.2,39.5,39.0,34,35,34,0.285,13.5,14.1,13.1,21.07,24.8,178,11,37.1,0.00243,0.00365,34.4,37.8,19,458,.,.,7.45,0.00,0.00
15min,AgWx,beryljct,423,27NOV2019:11:00:00,41.7,14.59,40.0,40.1,39.7,40.1,39.4,35,35,34,0.296,14.1,14.9,13.4,26.28,22.7,176,11,33.7,0.00248,0.00367,34.4,37.7,19,484,.,.,7.46,0.00,0.00
15min,AgWx,beryljct,423,27NOV2019:11:15:00,42.1,14.19,40.4,40.1,40.0,40.3,39.7,35,36,34,0.300,14.5,15.6,13.5,24.27,25.7,175,10,31.9,0.00257,0.00383,34.4,37.7,18,504,.,.,7.45,0.00,0.00
15min,AgWx,beryljct,423,27NOV2019:11:30:00,42.4,14.18,40.4,40.2,40.1,40.3,39.9,35,36,34,0.299,14.8,15.6,13.9,26.64,28.1,178,9.4,35.3,0.00261,0.00391,34.4,37.7,19,522,.,.,7.45,0.00,0.00
15min,AgWx,beryljct,423,27NOV2019:11:45:00,42.5,14.15,40.8,40.6,40.3,40.6,39.9,36,38,35,0.323,15.7,16.8,14.6,26.92,28.5,177,9.9,35.1,0.00263,0.00392,34.4,37.7,19,537,.,.,7.45,0.00,0.00
15min,AgWx,beryljct,423,27NOV2019:12:00:00,42.9,14.14,41.4,41.3,40.8,41.3,40.4,38,40,37,0.348,16.9,18.5,16.2,33.47,28.6,183,9.3,37.4,0.00267,0.00396,34.4,37.7,19,555,.,.,7.45,0.00,0.00
15min,AgWx,beryljct,423,27NOV2019:12:15:00,43.0,14.15,41.3,41.1,40.9,41.3,40.6,38,39,38,0.343,17.5,18.3,17.0,28.59,29.3,183,9.3,39.0,0.00258,0.00387,34.4,37.7,19,515,.,.,7.45,0.00,0.00
15min,AgWx,beryljct,423,27NOV2019:12:30:00,43.4,14.14,42.5,41.8,41.6,42.0,41.1,39,40,38,0.347,18.2,18.8,17.8,19.01,28.8,181,9.1,39.3,0.00270,0.00400,34.4,37.6,19,553,.,.,7.45,0.00,0.00
15min,AgWx,beryljct,423,27NOV2019:12:45:00,43.7,14.1,42.4,42.1,42.0,42.3,41.7,39,40,38,0.362,18.7,19.6,18.1,26.83,28.9,179,12,38.0,0.00270,0.00402,34.4,37.6,19,542,.,.,7.46,0.01,0.00
15min,AgWx,beryljct,423,27NOV2019:13:00:00,44.1,14.12,42.5,42.5,42.4,42.7,42.2,39,41,38,0.366,19.4,20.3,18.4,25.03,26.1,180,8.7,33.4,0.00261,0.00388,34.4,37.6,19,503,.,.,7.45,0.00,0.00
15min,AgWx,beryljct,423,27NOV2019:13:15:00,44.5,14.11,42.7,42.7,42.6,42.9,42.4,39,40,38,0.367,19.3,20.0,18.7,31.35,27.3,178,9.3,36.9,0.00263,0.00394,34.4,37.6,19,494,.,.,7.45,0.00,0.00
15min,AgWx,beryljct,423,27NOV2019:13:30:00,44.8,14.1,41.7,41.8,42.6,42.9,41.8,39,40,39,0.360,19.7,20.3,19.1,30.14,28.0,180,7.1,35.8,0.00248,0.00379,34.4,37.6,19,437,.,.,7.45,0.00,0.00
15min,AgWx,beryljct,423,27NOV2019:13:45:00,44.6,14.12,41.8,41.7,41.8,42.1,41.7,40,41,40,0.364,19.6,20.1,19.0,29.77,24.4,177,9.4,32.7,0.00214,0.00331,34.4,37.6,19,321,.,.,7.46,0.01,0.00
15min,AgWx,beryljct,423,27NOV2019:14:00:00,44.1,14.15,41.6,41.4,41.6,41.7,41.4,41,43,40,0.361,19.7,20.7,19.1,26.28,24.0,175,9.2,32.4,0.00187,0.00301,34.3,37.6,19,182,.,.,7.46,0.00,0.00
15min,AgWx,beryljct,423,27NOV2019:14:15:00,43.7,13.73,41.7,41.4,41.4,41.5,41.3,41,42,40,0.364,19.6,20.2,19.2,26.11,23.2,176,8.3,32.2,0.00179,0.00289,34.3,37.6,19,160,.,.,7.45,0.00,0.00
15min,AgWx,beryljct,423,27NOV2019:14:30:00,43.4,13.87,41.8,41.5,41.4,41.6,41.3,41,42,41,0.368,19.7,20.2,19.3,19.75,21.7,178,7.0,28.7,0.00171,0.00278,34.3,37.6,19,149,.,.,7.45,0.00,0.00
15min,AgWx,beryljct,423,27NOV2019:14:45:00,43.3,14.17,42.2,41.9,41.7,42.0,41.5,41,42,41,0.369,20.0,20.3,19.5,15.08,19.6,178,9.1,26.0,0.00165,0.00268,34.3,37.5,19,164,.,.,7.45,0.00,0.00
15min,AgWx,beryljct,423,27NOV2019:15:00:00,43.2,13.41,41.9,41.8,41.8,42.0,41.7,42,43,41,0.385,20.6,21.0,20.0,21.79,20.3,182,7.9,30.4,0.00155,0.00258,34.3,37.5,18,125,.,.,7.45,0.00,0.00
15min,AgWx,beryljct,423,27NOV2019:15:15:00,43.2,13.33,41.5,41.6,41.6,41.8,41.5,44,45,43,0.395,21.2,21.6,20.8,14.29,18.6,185,7.9,23.5,0.00139,0.00234,34.3,37.5,19,102,.,.,7.45,0.00,0.00
15min,AgWx,beryljct,423,27NOV2019:15:30:00,42.9,13.27,41.6,41.4,41.4,41.6,41.2,45,46,44,0.393,21.5,22.0,21.1,11.99,16.1,179,7.8,21.3,0.00119,0.00205,34.3,37.5,18,71,.,.,7.45,0.00,0.00
15min,AgWx,beryljct,423,27NOV2019:15:45:00,42.7,13.27,41.6,41.3,41.4,41.7,41.2,45,46,43,0.392,21.4,21.9,21.0,17.89,14.8,184,9.1,20.1,0.00097,0.00178,34.3,37.5,18,72,.,.,7.45,0.00,0.00
15min,AgWx,beryljct,423,27NOV2019:16:00:00,42.6,13.22,41.8,41.5,41.6,41.7,41.3,44,45,43,0.398,21.2,21.7,20.9,21,18.2,187,8.7,24.9,0.00111,0.00203,34.3,37.5,18,61,.,.,7.45,0.00,0.00
15min,AgWx,beryljct,423,27NOV2019:16:15:00,42.6,13.19,41.9,41.7,41.7,41.8,41.5,45,45,44,0.399,21.7,22.0,21.2,20.69,21.3,189,9.6,29.2,0.00119,0.00218,34.3,37.5,18,53,.,.,7.45,0.00,0.00
15min,AgWx,beryljct,423,27NOV2019:16:30:00,42.6,13.16,41.6,41.5,41.5,41.7,41.4,46,47,45,0.415,22.2,22.7,21.7,18.72,20.1,196,8.9,25.9,0.00052,0.00058,34.3,37.5,18,36,.,.,7.46,0.01,0.00
15min,AgWx,beryljct,423,27NOV2019:16:45:00,42.4,13.12,41.1,41.0,41.3,41.6,40.9,47,48,46,0.417,22.4,22.8,22.1,15.87,19.1,195,9.1,30.3,0.00050,0.00055,34.3,37.5,19,26,.,.,7.45,0.00,0.00
15min,AgWx,beryljct,423,27NOV2019:17:00:00,42.2,13.09,40.8,40.8,40.9,41.2,40.8,49,50,48,0.433,23.3,23.8,22.7,16.55,20.5,190,8.7,29.8,0.00047,0.00052,34.3,37.4,19,15,.,.,7.45,0.00,0.00
15min,AgWx,beryljct,423,27NOV2019:17:15:00,42.0,13.07,40.8,40.7,40.8,41.0,40.7,50,51,49,0.433,23.7,24.0,23.4,14.75,19.5,196,7.6,26.8,0.00045,0.00050,34.4,37.4,19,5,.,.,7.46,0.00,0.00
15min,AgWx,beryljct,423,27NOV2019:17:30:00,41.8,13.06,40.6,40.4,40.5,40.8,40.3,51,52,50,0.446,23.9,24.3,23.7,17.36,15.9,202,8.3,22.3,0.00040,0.00046,34.4,37.4,18,2,.,.,7.46,0.00,0.00
15min,AgWx,beryljct,423,27NOV2019:17:45:00,41.5,13.05,39.9,39.8,40.1,40.3,39.8,53,55,52,0.455,24.5,24.8,24.2,13.85,16.7,197,8.7,22.3,0.00039,0.00044,34.4,37.4,19,0,.,.,7.46,0.00,0.00
15min,AgWx,beryljct,423,27NOV2019:18:00:00,41.2,13.03,39.9,39.9,39.8,40.0,39.6,54,55,53,0.443,24.6,24.9,24.2,13.61,15.0,198,8.2,22.4,0.00036,0.00041,34.4,37.4,19,0,.,.,7.46,0.00,0.00
15min,AgWx,beryljct,423,27NOV2019:18:15:00,41.0,13.02,39.5,39.4,39.6,40.0,39.3,54,54,53,0.436,24.1,24.4,23.8,17.36,17.6,209,8.5,23.0,0.00038,0.00043,34.4,37.4,18,0,.,.,7.46,0.00,0.00
15min,AgWx,beryljct,423,27NOV2019:18:30:00,40.7,13.02,38.4,38.3,39.1,39.4,38.3,55,60,53,0.468,24.5,25.5,23.6,18.02,18.8,211,7.7,26.2,0.00037,0.00041,34.4,37.4,19,0,.,.,7.46,0.00,0.00
15min,AgWx,beryljct,423,27NOV2019:18:45:00,40.2,13.01,37.7,37.5,37.9,38.3,37.5,59,60,59,0.457,25.0,25.6,24.6,18.06,16.1,213,8.9,21.8,0.00031,0.00035,34.5,37.4,18,0,.,.,7.46,0.00,0.00
15min,AgWx,beryljct,423,27NOV2019:19:00:00,39.5,13,35.3,35.7,36.6,37.5,35.7,66,71,60,0.505,26.2,27.4,24.9,15.1,16.2,204,11,21.6,0.00025,0.00028,34.5,37.4,18,0,.,.,7.46,0.00,0.00
15min,AgWx,beryljct,423,27NOV2019:19:15:00,38.5,13,34.7,34.3,34.8,35.7,34.3,75,79,72,0.528,27.9,28.4,27.4,15.02,12.3,212,8.4,18.5,0.00014,0.00017,34.5,37.4,18,0,.,.,7.46,0.00,0.00
15min,AgWx,beryljct,423,27NOV2019:19:30:00,37.5,12.99,34.4,33.9,34.2,34.5,33.9,80,81,79,0.535,28.7,28.9,28.4,12.19,11.4,216,9.2,19.2,0.00011,0.00012,34.6,37.4,19,0,.,.,7.46,0.00,0.00
15min,AgWx,beryljct,423,27NOV2019:19:45:00,37.0,12.98,35.1,34.8,34.6,35.0,33.9,77,81,75,0.516,28.2,28.8,27.8,12.61,13.7,207,7.1,20.5,0.00014,0.00016,34.6,37.4,19,0,.,.,7.47,0.00,0.00
15min,AgWx,beryljct,423,27NOV2019:20:00:00,36.9,12.97,35.1,34.9,35.0,35.3,34.8,74,76,73,0.511,27.6,28.0,27.5,19.25,15.9,203,7.6,21.0,0.00017,0.00019,34.6,37.4,19,0,.,.,7.47,0.00,0.00
15min,AgWx,beryljct,423,27NOV2019:20:15:00,36.7,12.96,34.2,33.8,34.3,35.0,33.8,79,82,75,0.539,28.4,28.9,27.7,18.04,16.0,202,6.8,21.4,0.00013,0.00015,34.6,37.4,18,0,.,.,7.47,0.00,0.00
15min,AgWx,beryljct,423,27NOV2019:20:30:00,36.3,12.95,33.9,33.6,33.7,33.9,33.6,82,84,81,0.543,28.9,29.2,28.7,18.85,16.9,195,9.6,21.1,0.00011,0.00012,34.6,37.4,19,0,.,.,7.47,0.00,0.00
15min,AgWx,beryljct,423,27NOV2019:20:45:00,35.9,12.95,33.5,33.3,33.3,33.6,33.1,85,86,84,0.552,29.3,29.5,29.1,12.82,15.1,187,7.1,20.4,0.00008,0.00009,34.6,37.4,19,0,.,.,7.47,0.00,0.00
15min,AgWx,beryljct,423,27NOV2019:21:00:00,35.5,12.94,33.3,33.1,33.1,33.3,33.0,87,88,86,0.558,29.6,29.8,29.4,13.18,13.0,185,7.9,16.9,0.00006,0.00008,34.6,37.4,19,0,.,.,7.47,0.00,0.00
15min,AgWx,beryljct,423,27NOV2019:21:15:00,35.3,12.94,33.2,33.0,33.0,33.1,33.0,88,88,88,0.560,29.8,30.0,29.7,12.06,11.6,180,9.8,17.6,0.00005,0.00006,34.7,37.4,18,0,.,.,7.48,0.01,0.00
15min,AgWx,beryljct,423,27NOV2019:21:30:00,35.1,12.92,33.0,32.7,32.8,33.0,32.7,89,90,88,0.568,30.0,30.3,29.8,10.24,10.1,181,8.6,14.6,0.00004,0.00005,34.7,37.4,19,0,.,.,7.47,0.00,0.00
15min,AgWx,beryljct,423,27NOV2019:21:45:00,34.9,12.92,32.9,32.5,32.5,32.8,32.4,91,92,90,0.571,30.3,30.4,30.2,8.64,10.2,180,7.4,13.5,0.00003,0.00004,34.7,37.4,19,0,.,.,7.48,0.00,0.00
15min,AgWx,beryljct,423,27NOV2019:22:00:00,34.8,12.91,33.3,33.0,32.8,33.0,32.5,90,92,89,0.565,30.2,30.4,30.0,7.585,9.6,181,7.9,13.8,0.00003,0.00004,34.7,37.4,18,0,.,.,7.48,0.00,0.00
15min,AgWx,beryljct,423,27NOV2019:22:15:00,34.8,12.91,33.3,33.0,33.1,33.1,33.0,89,90,89,0.572,30.3,30.4,30.1,10.37,11.5,184,7.5,15.0,0.00004,0.00005,34.7,37.4,18,0,.,.,7.48,0.00,0.00
15min,AgWx,beryljct,423,27NOV2019:22:30:00,34.8,12.9,33.5,33.0,33.0,33.1,32.9,90,90,90,0.572,30.4,30.5,30.4,11.55,10.1,182,7.5,14.6,0.00003,0.00004,34.7,37.4,19,0,.,.,7.48,0.00,0.00
15min,AgWx,beryljct,423,27NOV2019:22:45:00,34.7,12.89,33.1,32.9,33.0,33.2,32.8,90,91,89,0.574,30.4,30.5,30.3,6.226,9.0,184,8.8,13.4,0.00003,0.00004,34.8,37.4,19,0,.,.,7.48,0.00,0.00
15min,AgWx,beryljct,423,27NOV2019:23:00:00,34.7,12.88,33.3,33.0,33.0,33.1,32.9,90,91,89,0.572,30.4,30.5,30.3,7.081,7.4,173,9.3,11.1,0.00002,0.00003,34.8,37.4,19,0,.,.,7.49,0.00,0.00
15min,AgWx,beryljct,423,27NOV2019:23:15:00,34.7,12.88,33.0,32.7,32.8,33.1,32.7,91,92,90,0.579,30.5,30.7,30.3,6.862,6.4,164,8.8,9.5,0.00001,0.00002,34.8,37.4,19,0,.,.,7.49,0.01,0.00
15min,AgWx,beryljct,423,27NOV2019:23:30:00,34.6,12.87,32.7,32.5,32.6,32.7,32.4,93,94,92,0.587,30.8,31.0,30.7,6.27,6.9,173,8.8,9.1,0.00000,0.00001,34.8,37.4,18,0,.,.,7.49,0.00,0.00
15min,AgWx,bigpiney,439,27NOV2019:00:00:00,1.8,12.57,1.1,0.4,0.1,0.4,-0.1,85,85,84,0.131,-3.4,-3.1,-3.7,0.592,0.5,225,25,1.3,-0.00005,-0.00007,32.6,34.1,50,0,0,0.0,5.62,0.00,0.00
15min,AgWx,bigpiney,439,27NOV2019:00:15:00,2.3,12.57,1.6,1.0,0.7,1.0,0.4,85,85,84,0.134,-2.9,-2.6,-3.2,0.68,0.7,238,9.9,1.4,-0.00005,-0.00007,32.6,34.0,50,0,0,0.0,5.62,0.00,0.00
15min,AgWx,bigpiney,439,27NOV2019:00:30:00,2.7,12.56,1.6,1.0,1.0,1.2,0.9,84,85,84,0.134,-2.6,-2.4,-2.7,1.491,1.0,226,6.4,1.6,-0.00004,-0.00006,32.6,34.0,50,0,0,0.0,5.62,0.00,0.00
15min,AgWx,bigpiney,439,27NOV2019:00:45:00,3.1,12.55,1.9,1.2,1.2,1.4,1.0,84,85,84,0.136,-2.4,-2.3,-2.6,1.644,1.4,244,8.7,2.0,-0.00004,-0.00005,32.6,34.2,50,0,0,0.0,5.62,0.00,0.00
15min,AgWx,bigpiney,439,27NOV2019:01:00:00,3.5,12.54,2.9,2.3,1.8,2.3,1.2,85,85,84,0.143,-1.7,-1.2,-2.4,1.403,1.8,241,9.1,2.7,-0.00003,-0.00004,32.6,34.0,50,0,0,0.0,5.62,0.00,0.00
15min,AgWx,bigpiney,439,27NOV2019:01:15:00,3.9,12.53,3.4,2.8,2.6,2.9,2.3,85,85,85,0.147,-0.9,-0.5,-1.2,1.293,2.4,284,9.5,3.7,-0.00003,-0.00003,32.6,34.1,50,0,0,0.0,5.62,0.00,0.00
15min,AgWx,bigpiney,439,27NOV2019:01:30:00,4.2,12.52,4.2,3.5,3.1,3.5,2.8,85,86,85,0.153,-0.3,0.1,-0.7,2.368,1.9,306,12,3.2,-0.00003,-0.00004,32.6,34.0,50,0,0,0.0,5.62,0.00,0.00
15min,AgWx,bigpiney,439,27NOV2019:01:45:00,4.6,12.51,4.8,4.2,3.9,4.2,3.5,86,86,85,0.157,0.5,0.8,0.1,3.288,2.2,294,15,3.6,-0.00003,-0.00004,32.6,34.1,50,0,0,0.0,5.62,0.00,0.00
15min,AgWx,bigpiney,439,27NOV2019:02:00:00,5.1,12.51,5.2,4.7,4.4,4.7,4.1,86,86,85,0.161,1.0,1.4,0.7,4.45,2.9,291,16,6.4,-0.00002,-0.00002,32.6,34.0,50,0,0,0.0,5.62,0.00,0.00
15min,AgWx,bigpiney,439,27NOV2019:02:15:00,5.5,12.5,5.6,5.1,4.9,5.1,4.7,86,86,86,0.165,1.6,1.8,1.3,4.954,5.3,311,7.3,8.1,-0.00001,-0.00000,32.6,34.1,50,0,0,0.0,5.62,0.00,0.00
15min,AgWx,bigpiney,439,27NOV2019:02:30:00,6.0,12.49,5.7,5.2,5.1,5.3,5.0,86,86,86,0.166,1.8,2.0,1.7,4.056,5.2,292,10,7.2,-0.00001,-0.00000,32.6,34.1,50,0,0,0.0,5.62,0.00,0.00
15min,AgWx,bigpiney,439,27NOV2019:02:45:00,6.3,12.48,4.5,4.3,5.1,5.5,4.3,86,86,85,0.157,1.7,2.2,0.8,2.126,3.1,254,31,5.7,-0.00002,-0.00002,32.6,34.0,50,0,0,0.0,5.62,0.00,0.00
15min,AgWx,bigpiney,439,27NOV2019:03:00:00,6.5,12.47,4.9,4.2,4.1,4.3,4.0,85,86,85,0.158,0.7,0.9,0.4,2.039,2.2,217,12,3.2,-0.00003,-0.00004,32.6,34.1,50,0,0,0.0,5.62,0.00,0.00
15min,AgWx,bigpiney,439,27NOV2019:03:15:00,6.6,12.47,5.2,4.6,4.5,4.8,4.2,86,86,86,0.161,1.2,1.4,0.9,1.359,1.8,214,7.1,2.7,-0.00004,-0.00004,32.6,34.1,50,0,0,0.0,5.62,0.00,0.00
15min,AgWx,bigpiney,439,27NOV2019:03:30:00,6.8,12.47,5.8,5.2,4.9,5.2,4.6,86,86,86,0.166,1.6,2.0,1.3,2.214,1.7,229,7.3,2.5,-0.00004,-0.00005,32.6,34.0,50,0,0,0.0,5.62,0.00,0.00
15min,AgWx,bigpiney,439,27NOV2019:03:45:00,6.9,12.47,6.2,5.6,5.4,5.7,5.2,86,86,86,0.169,2.2,2.4,1.9,2.499,2.2,223,4.9,3.0,-0.00003,-0.00004,32.6,34.1,50,0,0,0.0,5.62,0.00,0.00
15min,AgWx,bigpiney,439,27NOV2019:04:00:00,7.2,12.46,6.5,6.1,5.9,6.2,5.6,86,87,86,0.173,2.7,3.0,2.3,1.25,1.5,206,16,2.5,-0.00004,-0.00006,32.6,34.0,50,0,0,0.0,5.62,0.00,0.00
15min,AgWx,bigpiney,439,27NOV2019:04:15:00,7.5,12.45,7.2,6.4,6.2,6.4,6.0,86,87,86,0.176,3.0,3.2,2.8,0.395,0.7,228,16,1.8,-0.00006,-0.00008,32.6,34.0,50,0,0,0.0,5.62,0.00,0.00
15min,AgWx,bigpiney,439,27NOV2019:04:30:00,7.8,12.45,7.8,7.1,6.8,7.1,6.5,87,87,87,0.182,3.6,3.9,3.3,0,0.2,251,16,0.8,-0.00008,-0.00012,32.6,34.1,50,0,0,0.0,5.62,0.00,0.00
15min,AgWx,bigpiney,439,27NOV2019:04:45:00,8.2,12.44,8.1,7.5,7.2,7.5,7.1,87,87,87,0.187,4.1,4.5,3.9,2.17,0.7,312,16,2.3,-0.00006,-0.00009,32.6,34.1,50,0,0,0.0,5.62,0.00,0.00
15min,AgWx,bigpiney,439,27NOV2019:05:00:00,8.5,12.44,8.6,8.0,7.8,8.1,7.5,87,87,87,0.191,4.8,5.0,4.4,1.841,2.2,324,12,3.5,-0.00004,-0.00004,32.6,34.0,50,0,0,0.0,5.62,0.00,0.00
15min,AgWx,bigpiney,439,27NOV2019:05:15:00,8.9,12.44,8.6,8.1,8.0,8.1,7.9,87,87,87,0.191,4.9,5.0,4.8,1.6,2.1,326,7.6,2.8,-0.00004,-0.00005,32.6,34.0,50,0,0,0.0,5.62,0.00,0.00
15min,AgWx,bigpiney,439,27NOV2019:05:30:00,9.2,12.44,8.8,8.3,8.2,8.4,8.1,87,87,87,0.193,5.1,5.3,5.0,1.359,1.6,336,8.5,2.2,-0.00005,-0.00006,32.6,34.1,50,0,0,0.0,5.62,0.00,0.00
15min,AgWx,bigpiney,439,27NOV2019:05:45:00,9.5,12.43,9.0,8.5,8.4,8.5,8.3,87,87,87,0.196,5.3,5.5,5.2,2.324,1.6,304,8.2,2.6,-0.00005,-0.00006,32.6,34.0,50,0,0,0.0,5.62,0.00,0.00
15min,AgWx,bigpiney,439,27NOV2019:06:00:00,9.8,12.43,9.2,8.8,8.6,8.8,8.5,87,88,87,0.198,5.6,5.8,5.5,2.258,2.4,296,11,3.7,-0.00004,-0.00004,32.6,34.0,50,0,0,0.0,5.62,0.00,0.00
15min,AgWx,bigpiney,439,27NOV2019:06:15:00,10.0,12.43,9.3,8.6,8.7,8.8,8.6,87,88,87,0.197,5.7,5.9,5.6,1.096,2.1,285,12,2.9,-0.00004,-0.00005,32.6,34.0,50,0,0,0.0,5.62,0.00,0.00
15min,AgWx,bigpiney,439,27NOV2019:06:30:00,10.2,12.42,9.1,8.6,8.7,8.8,8.6,87,87,87,0.196,5.7,5.8,5.6,2.083,1.2,248,27,2.3,-0.00006,-0.00007,32.6,34.0,50,0,0,0.0,5.62,0.00,0.00
15min,AgWx,bigpiney,439,27NOV2019:06:45:00,10.3,12.42,8.6,8.2,8.4,8.7,8.2,87,87,87,0.193,5.4,5.7,5.1,2.455,2.4,230,16,3.1,-0.00004,-0.00004,32.6,34.1,50,0,0,0.0,5.62,0.00,0.00
15min,AgWx,bigpiney,439,27NOV2019:07:00:00,10.2,12.42,8.4,7.9,8.0,8.2,7.8,87,87,87,0.191,4.9,5.2,4.7,1.491,2.1,254,3.9,2.9,-0.00004,-0.00005,32.6,34.1,50,0,0,0.0,5.62,0.00,0.00
15min,AgWx,bigpiney,439,27NOV2019:07:15:00,10.2,12.43,8.9,8.3,8.1,8.3,7.9,87,88,87,0.194,5.1,5.3,4.9,1.491,1.6,267,8.7,2.1,-0.00005,-0.00006,32.6,34.1,50,0,0,0.0,5.62,0.00,0.00
15min,AgWx,bigpiney,439,27NOV2019:07:30:00,10.2,12.43,9.3,8.7,8.5,8.7,8.3,87,88,87,0.198,5.5,5.7,5.3,3.157,2.5,277,13,3.6,-0.00003,-0.00004,32.6,34.1,50,3,0,0.0,5.62,0.00,0.00
15min,AgWx,bigpiney,439,27NOV2019:07:45:00,10.4,12.44,9.6,9.0,8.9,9.1,8.7,88,88,87,0.201,5.9,6.1,5.7,1.622,1.8,309,16,4.1,-0.00017,-0.00016,32.6,34.1,50,13,0,0.0,5.62,0.00,0.00
15min,AgWx,bigpiney,439,27NOV2019:08:00:00,10.6,12.46,9.8,9.2,9.1,9.2,9.0,88,88,87,0.202,6.1,6.3,6.0,2.389,2.1,328,8.1,3.3,-0.00013,-0.00012,32.6,34.1,50,29,0,0.0,5.62,0.00,0.00
15min,AgWx,bigpiney,439,27NOV2019:08:15:00,10.8,12.46,9.9,9.2,9.2,9.3,9.2,88,88,87,0.203,6.2,6.4,6.2,2.587,3.1,324,11,4.2,0.00003,0.00005,32.6,34.1,50,30,0,0.0,5.62,0.00,0.00
15min,AgWx,bigpiney,439,27NOV2019:08:30:00,11.1,12.47,10.0,9.5,9.4,9.5,9.2,88,88,88,0.205,6.4,6.6,6.3,2.938,3.1,313,7.9,4.2,0.00007,0.00010,32.6,34.0,50,40,0,0.0,5.62,0.00,0.00
15min,AgWx,bigpiney,439,27NOV2019:08:45:00,11.5,12.53,10.3,9.8,9.7,9.9,9.5,88,88,88,0.209,6.7,7.0,6.5,4.187,3.1,311,8.3,4.8,0.00011,0.00014,32.6,34.0,50,74,0,0.0,5.62,0.00,0.00